| time (UTC) | temp F | wind direction | speed MPH | gust MPH | rain 1hr in | rain 24hr in | rain mn in | humidity % | barometer mb |
| 20260507073029 | 63 | 223 | 0.0 | 6.0 | 0.00 | 0.00 | 0.00 | 58 | 1012.8 |
| 20260507071523 | 61 | 215 | 0.0 | 9.0 | 0.00 | 0.00 | 0.00 | 61 | 1012.8 |
| 20260507070019 | 60 | 236 | 2.0 | 7.0 | 0.00 | 0.00 | 0.00 | 63 | 1013.1 |
| 20260507064516 | 59 | 263 | 2.0 | 6.0 | 0.00 | 0.00 | 0.00 | 66 | 1013.1 |
| 20260507063025 | 59 | 194 | 2.0 | 6.0 | 0.00 | 0.00 | 0.00 | 67 | 1012.9 |
| 20260507061512 | 58 | 190 | 2.0 | 7.0 | 0.00 | 0.00 | 0.00 | 68 | 1013.0 |
| 20260507060024 | 57 | 185 | 4.0 | 9.0 | 0.00 | 0.00 | 0.00 | 69 | 1012.8 |
| 20260507054508 | 57 | 242 | 4.0 | 10.0 | 0.00 | 0.00 | 0.00 | 72 | 1012.7 |
| 20260507053006 | 56 | 241 | 5.0 | 8.0 | 0.00 | 0.00 | 0.00 | 75 | 1012.5 |
| 20260507051604 | 56 | 215 | 2.0 | 5.0 | 0.00 | 0.00 | 0.00 | 75 | 1012.4 |
| 20260507050101 | 57 | 240 | 2.0 | 7.0 | 0.00 | 0.00 | 0.00 | 73 | 1012.3 |
| 20260507044555 | 58 | 198 | 4.0 | 8.0 | 0.00 | 0.01 | 0.00 | 71 | 1012.1 |
| 20260507043052 | 58 | 238 | 5.0 | 11.0 | 0.00 | 0.01 | 0.00 | 70 | 1011.7 |
| 20260507041549 | 58 | 248 | 1.0 | 5.0 | 0.00 | 0.01 | 0.00 | 70 | 1011.5 |
| 20260507040048 | 58 | 196 | 0.0 | 7.0 | 0.00 | 0.01 | 0.00 | 71 | 1011.7 |
| 20260507034548 | 58 | 141 | 4.0 | 7.0 | 0.00 | 0.01 | 0.00 | 72 | 1011.5 |
| 20260507033048 | 58 | 181 | 3.0 | 11.0 | 0.00 | 0.01 | 0.00 | 72 | 1011.6 |
| 20260507031547 | 58 | 177 | 4.0 | 8.0 | 0.00 | 0.01 | 0.00 | 73 | 1011.6 |
| 20260507030045 | 58 | 246 | 7.0 | 11.0 | 0.00 | 0.01 | 0.00 | 72 | 1011.7 |
| 20260507024543 | 58 | 284 | 6.0 | 14.0 | 0.00 | 0.01 | 0.00 | 72 | 1011.4 |
| 20260507023041 | 58 | 161 | 2.0 | 10.0 | 0.00 | 0.01 | 0.00 | 75 | 1011.4 |
| 20260507021539 | 58 | 259 | 1.0 | 7.0 | 0.00 | 0.01 | 0.00 | 75 | 1011.4 |
| 20260507020043 | 59 | 254 | 3.0 | 7.0 | 0.00 | 0.01 | 0.00 | 74 | 1011.3 |
| 20260507014548 | 59 | 197 | 1.0 | 4.0 | 0.00 | 0.01 | 0.00 | 75 | 1011.4 |
| 20260507013136 | 59 | 276 | 5.0 | 11.0 | 0.00 | 0.01 | 0.00 | 75 | 1011.4 |
| 20260507011536 | 59 | 213 | 1.0 | 12.0 | 0.00 | 0.01 | 0.00 | 76 | 1011.4 |
| 20260507010045 | 59 | 183 | 1.0 | 7.0 | 0.00 | 0.01 | 0.00 | 77 | 1011.3 |
| 20260507004534 | 59 | 311 | 2.0 | 10.0 | 0.00 | 0.01 | 0.00 | 74 | 1011.5 |
| 20260507003031 | 59 | 217 | 7.0 | 14.0 | 0.00 | 0.01 | 0.00 | 74 | 1011.5 |
| 20260507001533 | 59 | 244 | 1.0 | 4.0 | 0.00 | 0.01 | 0.00 | 74 | 1011.4 |
| 20260507000027 | 59 | 292 | 6.0 | 11.0 | 0.00 | 0.01 | 0.00 | 73 | 1011.5 |
| 20260506234530 | 59 | 92 | 2.0 | 8.0 | 0.00 | 0.01 | 0.00 | 74 | 1011.5 |
| 20260506233022 | 59 | 345 | 1.0 | 8.0 | 0.00 | 0.01 | 0.00 | 74 | 1011.4 |
| 20260506231518 | 59 | 298 | 1.0 | 6.0 | 0.00 | 0.01 | 0.00 | 74 | 1011.5 |
| 20260506230014 | 59 | 276 | 5.0 | 10.0 | 0.00 | 0.01 | 0.00 | 73 | 1011.7 |
| 20260506224513 | 59 | 194 | 0.0 | 4.0 | 0.00 | 0.01 | 0.00 | 75 | 1011.9 |
| 20260506223012 | 59 | 193 | 0.0 | 5.0 | 0.00 | 0.01 | 0.00 | 75 | 1011.8 |
| 20260506221511 | 59 | 159 | 1.0 | 3.0 | 0.00 | 0.01 | 0.00 | 77 | 1012.0 |
| 20260506220017 | 59 | 159 | 0.0 | 2.0 | 0.00 | 0.01 | 0.00 | 76 | 1011.8 |
| 20260506214510 | 59 | 159 | 0.0 | 2.0 | 0.00 | 0.03 | 0.01 | 75 | 1011.8 |
| 20260506213007 | 59 | 93 | 1.0 | 4.0 | 0.00 | 0.03 | 0.01 | 74 | 1011.9 |
| 20260506211511 | 60 | 131 | 1.0 | 6.0 | 0.00 | 0.03 | 0.01 | 74 | 1011.8 |
| 20260506210012 | 60 | 42 | 0.0 | 3.0 | 0.00 | 0.03 | 0.01 | 73 | 1011.9 |
| 20260506204507 | 60 | 192 | 1.0 | 6.0 | 0.00 | 0.18 | 0.01 | 73 | 1011.8 |
| 20260506203006 | 60 | 343 | 2.0 | 6.0 | 0.00 | 0.18 | 0.01 | 74 | 1011.6 |
| 20260506201508 | 60 | 15 | 2.0 | 5.0 | 0.00 | 0.18 | 0.01 | 75 | 1011.5 |
| 20260506200010 | 60 | 315 | 3.0 | 6.0 | 0.00 | 0.18 | 0.01 | 74 | 1011.4 |
| 20260506194505 | 60 | 338 | 0.0 | 5.0 | 0.00 | 0.28 | 0.01 | 75 | 1011.3 |
| 20260506193004 | 60 | 349 | 4.0 | 7.0 | 0.00 | 0.28 | 0.01 | 75 | 1011.2 |
| 20260506191504 | 61 | 360 | 1.0 | 6.0 | 0.00 | 0.28 | 0.01 | 74 | 1010.8 |
| 20260506190004 | 61 | 122 | 1.0 | 5.0 | 0.00 | 0.28 | 0.01 | 74 | 1010.6 |
| 20260506184505 | 61 | 17 | 2.0 | 7.0 | 0.00 | 0.46 | 0.01 | 73 | 1010.4 |
| 20260506183005 | 61 | 44 | 1.0 | 8.0 | 0.00 | 0.46 | 0.01 | 73 | 1010.1 |
| 20260506181504 | 62 | 110 | 3.0 | 12.0 | 0.00 | 0.46 | 0.01 | 72 | 1009.8 |
| 20260506180005 | 62 | 188 | 3.0 | 10.0 | 0.00 | 0.46 | 0.01 | 70 | 1009.8 |
| 20260506174502 | 62 | 167 | 4.0 | 11.0 | 0.00 | 0.68 | 0.01 | 70 | 1009.9 |
| 20260506173001 | 63 | 286 | 3.0 | 9.0 | 0.00 | 0.68 | 0.01 | 70 | 1009.8 |
| 20260506171610 | 63 | 265 | 2.0 | 16.0 | 0.00 | 0.68 | 0.01 | 69 | 1009.6 |
| 20260506170112 | 63 | 142 | 5.0 | 14.0 | 0.00 | 0.68 | 0.01 | 69 | 1009.5 |
| 20260506164623 | 64 | 149 | 2.0 | 9.0 | 0.00 | 0.76 | 0.01 | 67 | 1009.5 |
| 20260506163107 | 64 | 84 | 4.0 | 10.0 | 0.00 | 0.76 | 0.01 | 67 | 1009.7 |
| 20260506161600 | 65 | 158 | 3.0 | 7.0 | 0.00 | 0.76 | 0.01 | 65 | 1009.7 |
| 20260506160111 | 67 | 171 | 3.0 | 9.0 | 0.00 | 0.76 | 0.01 | 62 | 1009.7 |
| 20260506154558 | 67 | 186 | 3.0 | 9.0 | 0.00 | 0.76 | 0.01 | 62 | 1009.8 |
| 20260506153101 | 68 | 113 | 3.0 | 9.0 | 0.00 | 0.76 | 0.01 | 60 | 1009.7 |
| 20260506151558 | 67 | 8 | 2.0 | 4.0 | 0.00 | 0.76 | 0.01 | 60 | 1009.8 |
| 20260506150057 | 66 | 190 | 4.0 | 11.0 | 0.00 | 0.76 | 0.01 | 60 | 1009.6 |
| 20260506144556 | 66 | 113 | 2.0 | 6.0 | 0.00 | 0.76 | 0.01 | 62 | 1009.4 |
| 20260506143055 | 66 | 74 | 2.0 | 10.0 | 0.00 | 0.76 | 0.01 | 63 | 1009.6 |
| 20260506141609 | 67 | 77 | 1.0 | 12.0 | 0.00 | 0.76 | 0.01 | 62 | 1009.8 |
| 20260506140052 | 67 | 319 | 3.0 | 12.0 | 0.00 | 0.76 | 0.01 | 60 | 1009.9 |
| 20260506134551 | 66 | 96 | 2.0 | 6.0 | 0.00 | 0.76 | 0.01 | 63 | 1010.2 |
| 20260506133057 | 67 | 359 | 1.0 | 9.0 | 0.00 | 0.76 | 0.01 | 60 | 1010.4 |
| 20260506131554 | 67 | 196 | 4.0 | 8.0 | 0.00 | 0.76 | 0.01 | 60 | 1010.4 |
| 20260506130049 | 67 | 320 | 3.0 | 11.0 | 0.00 | 0.76 | 0.01 | 59 | 1010.6 |
| 20260506124546 | 66 | 155 | 3.0 | 12.0 | 0.00 | 0.76 | 0.01 | 60 | 1010.6 |
| 20260506123046 | 65 | 14 | 2.0 | 11.0 | 0.00 | 0.76 | 0.01 | 62 | 1010.8 |
| 20260506121553 | 65 | 238 | 1.0 | 6.0 | 0.00 | 0.76 | 0.01 | 61 | 1010.8 |
| 20260506120107 | 65 | 298 | 2.0 | 10.0 | 0.00 | 0.76 | 0.01 | 63 | 1010.8 |
| 20260506114545 | 65 | 236 | 4.0 | 10.0 | 0.00 | 0.76 | 0.01 | 64 | 1010.6 |
| 20260506113041 | 65 | 164 | 3.0 | 8.0 | 0.00 | 0.76 | 0.01 | 66 | 1010.7 |
| 20260506111540 | 65 | 328 | 3.0 | 9.0 | 0.00 | 0.76 | 0.01 | 66 | 1010.9 |
| 20260506110035 | 64 | 243 | 2.0 | 9.0 | 0.00 | 0.76 | 0.01 | 68 | 1011.1 |
| 20260506104533 | 63 | 277 | 2.0 | 10.0 | 0.00 | 0.76 | 0.01 | 71 | 1011.1 |
| 20260506103033 | 62 | 241 | 3.0 | 12.0 | 0.00 | 0.76 | 0.01 | 72 | 1011.0 |
| 20260506101529 | 62 | 44 | 3.0 | 10.0 | 0.00 | 0.76 | 0.01 | 72 | 1011.0 |
| 20260506100030 | 62 | 180 | 3.0 | 8.0 | 0.00 | 0.76 | 0.01 | 72 | 1011.0 |
| 20260506094533 | 62 | 226 | 2.0 | 9.0 | 0.00 | 0.76 | 0.01 | 73 | 1010.9 |
| 20260506093041 | 61 | 109 | 4.0 | 9.0 | 0.00 | 0.76 | 0.01 | 73 | 1011.0 |
| 20260506091525 | 61 | 309 | 5.0 | 13.0 | 0.00 | 0.76 | 0.01 | 74 | 1011.0 |
| 20260506090023 | 61 | 156 | 6.0 | 14.0 | 0.00 | 0.76 | 0.01 | 73 | 1010.8 |
| 20260506084523 | 61 | 274 | 2.0 | 11.0 | 0.00 | 0.76 | 0.01 | 74 | 1010.7 |
| 20260506083019 | 60 | 195 | 2.0 | 11.0 | 0.00 | 0.76 | 0.01 | 75 | 1010.8 |
| 20260506081518 | 60 | 134 | 4.0 | 8.0 | 0.00 | 0.76 | 0.01 | 76 | 1010.5 |